Williston, VT

5:54 PM EST on January 19, 2017 (GMT -0500)
Burlington International

Weather History for KBTV - March, 2013

Change the Weather History Date:

Sunday, March 24, 2013

  Actual Average Record
Temperature  
Mean Temperature 32 °F 34 °F  
Max Temperature 38 °F 43 °F 66 °F (1979)
Min Temperature 26 °F 25 °F -6 °F (1896)
Degree Days  
Heating Degree Days 33 31  
Month to date heating degree days 815 852  
Since 1 July heating degree days 5693 6262  
Cooling Degree Days 0 0  
Month to date cooling degree days 0 0  
Year to date cooling degree days 0 0  
Moisture  
Dew Point 22 °F    
Average Humidity 64    
Maximum Humidity 75    
Minimum Humidity 52    
Precipitation  
Precipitation T in 0.08 in 0.63 in (1953)
Month to date precipitation 1.93 1.69  
Year to date precipitation 4.36 5.51  
Snow  
Snow T in 0.40 in 2.50 in (1912)
Month to date snowfall 16.2 13.4  
Since 1 July snowfall 81.9 74.2  
Snow Depth 2.00 in    
Sea Level Pressure  
Sea Level Pressure 29.85 in    
Wind  
Wind Speed 9 mph (NNW)    
Max Wind Speed 16 mph    
Max Gust Speed 22 mph    
Visibility 10 miles    
Events Snow    
T = Trace of Precipitation, MM = Missing Value Source: NWS Daily Summary

Daily Weather History Graph

Daily Weather History Graph

Search for Another Location

Airport or City:

Trip Planner

Search our weather history database for the weather conditions in past years. The results will help you decide how hot, cold, wet, or windy it might be!

Date:

Astronomy

Mar. 24, 2013 Rise Set
Actual Time 6:47 AM EDT 7:10 PM EDT
Civil Twilight 6:18 AM EDT 7:39 PM EDT
Nautical Twilight 5:44 AM EDT 8:13 PM EDT
Astronomical Twilight 5:09 AM EDT 8:49 PM EDT
Moon 4:30 PM EDT (3/24) 5:02 AM EDT (3/24)
Length of Visible Light 13h 20m
Length of Day
12h 22m
Waxing Gibbous, 91% of the Moon is Illuminated
Mar 24
Waxing Gibbous
Mar 27
Full
Apr 3
Last Quarter
Apr 10
New
Apr 18
First Quarter

Hourly Weather History & Observations

Time (EDT) Temp. Windchill Dew Point Humidity Pressure Visibility Wind Dir Wind Speed Gust Speed Precip Events Conditions
12:54 AM 35.1 °F 27.9 °F 21.9 °F 59% 29.81 in 9.0 mi WNW 9.2 mph 18.4 mph 0.00 in Snow Light Snow
1:54 AM 35.1 °F 29.3 °F 21.9 °F 59% 29.83 in 9.0 mi WNW 6.9 mph - 0.00 in Snow Light Snow
2:54 AM 34.0 °F 26.0 °F 23.0 °F 64% 29.83 in 9.0 mi NW 10.4 mph - 0.00 in Snow Light Snow
3:54 AM 34.0 °F 27.2 °F 21.9 °F 61% 29.82 in 9.0 mi NW 8.1 mph - 0.00 in Snow Light Snow
4:54 AM 33.1 °F 24.9 °F 21.9 °F 64% 29.81 in 9.0 mi NW 10.4 mph - 0.00 in Snow Light Snow
5:54 AM 33.1 °F 24.9 °F 23.0 °F 66% 29.82 in 8.0 mi NW 10.4 mph - 0.00 in Snow Light Snow
6:24 AM 33.8 °F 27.0 °F 24.8 °F 70% 29.82 in 6.0 mi NW 8.1 mph - 0.00 in Snow Light Snow
6:35 AM 33.8 °F 27.0 °F 23.0 °F 65% 29.82 in 9.0 mi NW 8.1 mph - 0.00 in   Overcast
6:54 AM 33.1 °F 25.5 °F 23.0 °F 66% 29.85 in 10.0 mi NW 9.2 mph - 0.00 in   Overcast
7:54 AM 34.0 °F 26.0 °F 23.0 °F 64% 29.89 in 10.0 mi NW 10.4 mph - N/A   Overcast
8:54 AM 34.0 °F 25.5 °F 23.0 °F 64% 29.90 in 10.0 mi NW 11.5 mph - N/A   Overcast
9:54 AM 34.0 °F 25.5 °F 23.0 °F 64% 29.89 in 10.0 mi NNW 11.5 mph - N/A   Overcast
10:54 AM 35.1 °F 25.9 °F 23.0 °F 61% 29.88 in 10.0 mi North 13.8 mph - N/A   Overcast
11:06 AM 35.6 °F 27.5 °F 23.0 °F 60% 29.87 in 10.0 mi North 11.5 mph - N/A   Overcast
11:20 AM 35.6 °F 28.0 °F 23.0 °F 60% 29.87 in 10.0 mi North 10.4 mph - N/A   Overcast
11:54 AM 35.1 °F 27.4 °F 21.9 °F 59% 29.89 in 10.0 mi NNE 10.4 mph - N/A   Overcast
12:54 PM 36.0 °F 27.1 °F 21.9 °F 57% 29.88 in 10.0 mi NNW 13.8 mph - N/A   Overcast
1:54 PM 37.9 °F 28.9 °F 21.9 °F 53% 29.87 in 10.0 mi NNW 16.1 mph 20.7 mph N/A   Overcast
2:54 PM 37.0 °F 29.3 °F 21.9 °F 54% 29.86 in 10.0 mi North 11.5 mph - N/A   Mostly Cloudy
3:54 PM 37.0 °F 29.3 °F 21.0 °F 52% 29.85 in 10.0 mi North 11.5 mph - N/A   Overcast
4:54 PM 37.9 °F 30.5 °F 21.9 °F 53% 29.84 in 10.0 mi NNE 11.5 mph - N/A   Partly Cloudy
5:54 PM 37.0 °F 29.3 °F 21.0 °F 52% 29.84 in 10.0 mi NE 11.5 mph 17.3 mph N/A   Mostly Cloudy
6:54 PM 36.0 °F 32.1 °F 21.0 °F 55% 29.85 in 10.0 mi North 4.6 mph - N/A   Overcast
7:54 PM 33.1 °F 28.7 °F 21.9 °F 64% 29.85 in 10.0 mi NNW 4.6 mph - N/A   Clear
8:54 PM 32.0 °F 27.5 °F 21.0 °F 64% 29.86 in 10.0 mi NNW 4.6 mph - N/A   Clear
9:54 PM 28.0 °F 22.8 °F 19.9 °F 72% 29.85 in 10.0 mi East 4.6 mph - N/A   Clear
10:54 PM 28.9 °F - 21.0 °F 72% 29.84 in 10.0 mi Calm Calm - N/A   Clear
11:54 PM 28.0 °F - 21.0 °F 75% 29.83 in 10.0 mi Calm Calm - N/A   Clear